Location: Unspecified
(48.5670°N, 0.0000°E)
Time: 02:18:03
(UTC+00:00)

Courier 1B - All Passes

Search period start: 17 July 2019 00:00
Search period end: 27 July 2019 00:00
Orbit: 963 x 1209 km, 28.3° (Epoch: 15 July)

Date Brightness Start Highest point End Pass type
(mag) Time Alt. Az. Time Alt. Az. Time Alt. Az.
17 Jul - 09:26:08 10° SSW 09:29:10 13° S 09:32:07 10° SSE daylight
17 Jul - 11:19:30 10° SSW 11:21:48 12° S 11:24:04 10° S daylight
18 Jul - 08:32:55 10° SSW 08:35:42 12° S 08:38:26 10° SSE daylight
18 Jul - 10:25:21 10° SSW 10:28:23 13° S 10:31:21 10° SSE daylight
19 Jul - 07:40:03 10° S 07:42:13 11° SSE 07:44:22 10° SSE daylight
19 Jul - 09:31:28 10° SSW 09:34:55 14° S 09:38:18 10° SSE daylight
20 Jul - 08:37:48 10° SSW 08:41:27 14° S 08:45:00 10° SSE daylight
20 Jul - 10:31:55 10° SSW 10:34:06 11° SSW 10:36:16 10° S daylight
21 Jul - 07:44:20 10° SSW 07:47:56 14° S 07:51:28 10° SE daylight
21 Jul - 09:37:29 10° SW 09:40:40 13° S 09:43:47 10° SSE daylight
22 Jul - 06:51:07 10° SSW 06:54:26 13° S 06:57:41 10° SE daylight
22 Jul - 08:43:26 10° SW 08:47:11 14° S 08:50:50 10° SSE daylight
23 Jul - 05:58:17 10° S 06:00:54 12° SSE 06:03:31 10° SE daylight
23 Jul - 07:49:38 10° SSW 07:53:40 15° S 07:57:37 10° SSE daylight
23 Jul - 09:44:32 10° SSW 09:46:21 11° SSW 09:48:08 10° S daylight
24 Jul - 05:06:37 10° SSE 05:07:23 10° SSE 05:08:11 10° SSE daylight
24 Jul - 06:56:02 10° SSW 07:00:08 15° S 07:04:10 10° SE daylight
24 Jul - 08:49:44 10° SW 08:52:53 13° SSW 08:55:58 10° SSE daylight
25 Jul - 06:02:39 10° SSW 06:06:36 15° S 06:10:29 10° SE daylight
25 Jul - 07:55:32 10° SW 07:59:23 14° S 08:03:09 10° SSE daylight
26 Jul - 05:09:32 10° SSW 05:13:03 14° SSE 05:16:32 10° SE daylight
26 Jul - 07:01:38 10° SW 07:05:51 15° S 07:10:00 10° SSE daylight
26 Jul - 08:57:58 10° SSW 08:58:32 10° SSW 08:59:05 10° SSW daylight
